Flag for United Kingdom Weather past 2 weeks in Birmingham, England, United Kingdom

Now
55 °F

Passing clouds.


Feels Like: 53 °F
Forecast: 47 / 58 °F
Wind: 10 mph from Northwest

Location: Birmingham / Airport

Current Time: May 23, 2015 at 1:11:42 AM

Latest Report: May 23, 2015 at 12:50 AM


Visibility: N/A

Pressure: 30.27 "Hg

Humidity: 82%

Dew point: 50 °F

Location of BirminghamLocation

Historic Weather in Birmingham — Graph

°F

Birmingham temperature yesterday

Maximum temperature yesterday: 66 °F (at 2:20 PM)
Minimum temperature yesterday: 52 °F (at 2:20 AM)
Average temperature yesterday: 59 °F

Past Weeks' High & Low Weather Summary

 TemperatureHumidityPressure
High66 °F (May 11, 2:20 PM)100% (May 18, 8:20 AM)30.33 "Hg (May 18, 8:20 AM)
Low41 °F (May 13, 5:20 AM)29% (May 12, 3:50 PM)29.50 "Hg (May 19, 2:50 AM)
Average52 °F69%30.02 "Hg
* Reported May 7 11:20 PM — May 22 11:50 PM, Birmingham, Weather by CustomWeather, © 2015

Note: Actual official high and low records may vary slightly from our data, if they occured in-between our weather recording intervals... More about our weather records

Advertising

Birmingham weather history for previous 24 hours

 ConditionsComfort  
Time TempWeatherWind HumidityBarometerVisibility
11:50 PM
Fri, May 22
57 °FPassing clouds.12 mph82%30.27 "HgN/A
11:20 PM57 °FPassing clouds.9 mph82%30.27 "HgN/A
10:50 PM57 °FPartly cloudy.13 mph82%30.27 "HgN/A
10:20 PM59 °FPassing clouds.9 mph82%30.27 "HgN/A
9:50 PM59 °FMostly cloudy.10 mph82%30.24 "HgN/A
9:20 PM59 °FBroken clouds.15 mph77%30.24 "HgN/A
8:50 PM61 °FBroken clouds.14 mph72%30.24 "HgN/A
8:20 PM61 °FScattered clouds.13 mph77%30.24 "HgN/A
7:50 PM63 °FBroken clouds.12 mph73%30.21 "HgN/A
7:20 PM63 °FPartly sunny.13 mph73%30.21 "HgN/A
6:50 PM64 °FPartly sunny.15 mph68%30.21 "HgN/A
6:20 PM64 °FScattered clouds.13 mph68%30.21 "HgN/A
5:50 PM64 °FPartly sunny.9 mph64%30.21 "HgN/A
5:20 PM64 °FScattered showers. Broken clouds.12 mph68%30.21 "HgN/A
4:50 PM66 °FBroken clouds.9 mph60%30.21 "HgN/A
4:20 PM66 °FPartly sunny.9 mph56%30.21 "HgN/A
3:50 PM66 °FScattered clouds.7 mph60%30.21 "HgN/A
3:20 PM66 °FBroken clouds.8 mph56%30.21 "HgN/A
2:50 PM66 °FScattered clouds.8 mph60%30.21 "HgN/A
2:20 PM66 °FPartly sunny.8 mph60%30.21 "HgN/A
1:50 PM64 °FBroken clouds.6 mph68%30.24 "HgN/A
1:20 PM64 °FBroken clouds.6 mph64%30.24 "HgN/A
12:50 PM63 °FPartly sunny.6 mph64%30.24 "HgN/A
12:20 PM63 °FBroken clouds.5 mph64%30.24 "HgN/A
11:50 AM63 °FBroken clouds.6 mph64%30.24 "HgN/A
11:20 AM61 °FPartly sunny.6 mph68%30.24 "HgN/A
10:50 AM59 °FPartly sunny.6 mph72%30.27 "HgN/A
10:20 AM59 °FPartly sunny.3 mph72%30.27 "HgN/A
9:50 AM59 °FBroken clouds.5 mph72%30.27 "HgN/A
9:20 AM57 °FBroken clouds.6 mph77%30.27 "HgN/A
8:50 AM55 °FPartly sunny.7 mph77%30.27 "HgN/A
8:20 AM54 °FBroken clouds.7 mph82%30.27 "HgN/A
7:50 AM54 °FPartly sunny.6 mph77%30.27 "HgN/A
7:20 AM52 °FPartly sunny.5 mph82%30.27 "HgN/A
6:50 AM52 °FPartly sunny.5 mph82%30.27 "HgN/A
6:20 AM52 °FMostly cloudy.5 mph77%30.27 "HgN/A
5:50 AM52 °FPassing clouds.5 mph77%30.27 "HgN/A
5:20 AM52 °FPassing clouds.6 mph77%30.27 "HgN/A
4:50 AM52 °FPassing clouds.5 mph77%30.27 "HgN/A
4:20 AM52 °FPassing clouds.5 mph77%30.27 "HgN/A
3:50 AM52 °FClear.3 mph77%30.27 "Hg10 mi
3:20 AM52 °FPassing clouds.5 mph77%30.27 "HgN/A
2:50 AM52 °FCool.5 mph77%30.27 "HgN/A
2:20 AM52 °FCool.6 mph77%30.30 "HgN/A
1:50 AM54 °FCool.5 mph67%30.30 "HgN/A
1:20 AM54 °FPassing clouds.6 mph63%30.30 "HgN/A
Weather by CustomWeather, © 2015

See weather overviewHow to use our weather pages